Regional Weather Roundup
Issued by NWS Portland, ME

Current Version | Previous Version | Text Only | Print | Product List | Glossary Off
Versions: 1 2 3 4 5 6 7 8 9 10 11 12 13 14 15 16 17 18 19 20 21 22 23 24 25 26 27 28 29 30 31 32 33 34 35 36 37 38 39 40 41 42 43 44 45 46 47 48 49 50
000 ASUS41 KGYX 240610 RWRGYX WEATHER ROUNDUP FOR MAINE AND NEW HAMPSHIRE NATIONAL WEATHER SERVICE GRAY ME 200 AM EDT FRI MAR 24 2017 MEZ002-005-006-010-012-015-018-020-021-024-026-027-029-240700- MAINE CITY SKY/WX TMP DP RH WIND PRES REMARKS PORTLAND PTCLDY 23 3 42 CALM 30.52S 6HR MIN TEMP: 22; 6HR MAX TEMP: 30; SANFORD CLOUDY 17 11 77 CALM 30.50F BAR HARBOR PTCLDY 19 2 47 W5 30.49S WISCASSET PTCLDY 17 6 62 CALM 30.53R 6HR MIN TEMP: 16; 6HR MAX TEMP: 29; ROCKLAND PTCLDY 21 3 45 W5 30.50S FRYEBURG CLOUDY 21 4 47 E3 30.46F 6HR MIN TEMP: 21; 6HR MAX TEMP: 27; LEWISTONAUBURN MOCLDY 18 4 54 SE3 30.49F AUGUSTA CLOUDY 21 -1 38 CALM 30.48S 6HR MIN TEMP: 19; 6HR MAX TEMP: 25; WATERVILLE PTCLDY 17 4 56 SW5 30.45S BANGOR CLOUDY 17 0 47 SW3 30.48S 6HR MIN TEMP: 12; 6HR MAX TEMP: 21; GREENVILLE N/A 13 0 56 CALM 30.33F 6HR MIN TEMP: 12; 6HR MAX TEMP: 15; MILLINOCKET PTCLDY 17 0 47 W6 30.44R 6HR MIN TEMP: 13; 6HR MAX TEMP: 20; HOULTON CLOUDY -1 -8 72 CALM 30.40R 6HR MIN TEMP: -5; 6HR MAX TEMP: 19; PRESQUE ISLE PTCLDY -2 -8 76 CALM 30.40R 6HR MIN TEMP: -3; 6HR MAX TEMP: 19; FRENCHVILLE CLOUDY 11 -8 42 W9 30.31S 6HR MIN TEMP: 8; 6HR MAX TEMP: 15; CARIBOU CLOUDY 8 -8 48 SW7 30.37R 6HR MIN TEMP: 7; 6HR MAX TEMP: 17; $$ NHZ002-005-008-009-011-012-014-240700- NEW HAMPSHIRE CITY SKY/WX TMP DP RH WIND PRES REMARKS PORTSMOUTH MOCLDY 27 6 42 E3 30.50F ROCHESTER CLOUDY 24 6 46 E3 30.48F 6HR MIN TEMP: 23; 6HR MAX TEMP: 31; NASHUA CLOUDY 26 13 57 E3 30.50F MANCHESTER CLOUDY 27 7 42 SE3 30.48F 6HR MIN TEMP: 27; 6HR MAX TEMP: 33; CONCORD CLOUDY 24 14 65 CALM 30.48F 6HR MIN TEMP: 22; 6HR MAX TEMP: 31; LACONIA CLOUDY 24 10 55 SW3 30.47F PLYMOUTH FAIR 23 9 55 CALM 30.46F BERLIN CLOUDY 9 1 70 CALM 30.40F 6HR MIN TEMP: 8; 6HR MAX TEMP: 18; WHITEFIELD CLOUDY 10 2 69 CALM 30.41F 6HR MIN TEMP: 9; 6HR MAX TEMP: 21; JAFFREY CLOUDY 23 9 55 CALM 30.44F 6HR MIN TEMP: 18; 6HR MAX TEMP: 30; KEENE CLOUDY 24 13 62 CALM 30.48F LEBANON MOCLDY 21 11 65 NE5 30.45F 6HR MIN TEMP: 18; 6HR MAX TEMP: 28; MT WASHINGTON PTCLDY 14 -24 17 W16 N/A WCI -2 6HR MIN TEMP: -2; 6HR MAX TEMP: 13; $$ VTZ005-007-008-240700- VERMONT CITY SKY/WX TMP DP RH WIND PRES REMARKS ST JOHNSBURY N/A 19 6 57 MISG 30.42F MONTPELIER CLOUDY 23 3 42 S7 30.43F BURLINGTON PTCLDY 28 5 37 S7 30.40F $$ MAZ007-012-024-CTZ003-RIZ002-NYZ038-NYZ072-240700- SOUTHERN NEW ENGLAND AND NY CITY SKY/WX TMP DP RH WIND PRES REMARKS BOSTON CLOUDY 32 6 33 W5 30.53F WORCESTER PTCLDY 24 3 40 W7 30.46F NANTUCKET CLEAR 30 13 49 NW5 30.54S PROVIDENCE PTCLDY 28 3 34 CALM 30.53F HARTFORD MOCLDY 24 10 55 CALM 30.50F ALBANY CLOUDY 28 11 48 S5 30.47F NEW YORK CITY PTCLDY 39 21 48 S6 30.52F $$ ANZ081-ANZ082-ANZ150-NHZ014-MEZ023>029-240700- COASTAL MARINE OBSERVATIONS STATION/POSITION TIME TEMP WIND PRES WAVE AIR SEA DIR/SP/G HT/PER (UTC) (F) (DEG/KT/KT) (MB) (FT/S) MOUNT DESERT ROC 0600 27 1032.5R MATINICUS ROCK 0500 27 340/ 9/ 10 1032.3R ISLE OF SHOALS 0500 31 330/ 7/ 8 1033.7R JEFFREYS LEDGE 0506 41 N/A 3/ 4 CASHES LEDGE BUO 0550 29 39 1033.8R 3/ 5 GEORGES BANK BUO 0550 35 40 1032.2R 9/ 8 $$ .............KEY.............. WCI - WIND CHILL TC - TEMPERATURE IN CELSIUS VSB - VISIBILITY IN MILES HX - HEAT INDEX FAIR- INDICATES FEW OR NO CLOUDS BELOW 12,000 FT, WITH NO SIGNIFICANT WEATHER AND/OR OBSTRUCTIONS TO VISIBILITY.

USA.gov is the U.S. government's official web portal to all federal, state and local government web resources and services.